This is the latest recevied weather packets stored in our database for station/object KY4LEX. If no packets are shown the sender has not sent any weather packets the latest 10 day(s).
| Time | Temp. | Humidity | Pressure | Rain* | Wind** | Luminosity | Snow |
|---|---|---|---|---|---|---|---|
| 1778128081 | 12.22° C | 65% | 1019.9 hPa | 0 mm | - | 0 W/m² | - |
| 1778127776 | 12.22° C | 65% | 1020 hPa | 0 mm | - | 0 W/m² | - |
| 1778127474 | 12.22° C | 64% | 1020 hPa | 0 mm | - | 0 W/m² | - |
| 1778127170 | 12.78° C | 63% | 1020.3 hPa | 0 mm | - | 0 W/m² | - |
| 1778126867 | 12.78° C | 63% | 1020.2 hPa | 0 mm | - | 0 W/m² | - |
| 1778126563 | 12.78° C | 63% | 1020.3 hPa | 0 mm | - | 0 W/m² | - |
| 1778126259 | 12.78° C | 64% | 1020.3 hPa | 0 mm | - | 0 W/m² | - |
| 1778125954 | 12.22° C | 65% | 1020.3 hPa | 0 mm | - | 0 W/m² | - |
| 1778125653 | 12.78° C | 67% | 1020.3 hPa | 0 mm | - | 0 W/m² | - |
| 1778125349 | 12.78° C | 64% | 1020.4 hPa | 0 mm | - | 0 W/m² | - |
| 1778125048 | 12.78° C | 62% | 1020.2 hPa | 0 mm | - | 0 W/m² | - |
| 1778124745 | 12.78° C | 62% | 1020.4 hPa | 0 mm | - | 0 W/m² | - |
| 1778124442 | 12.78° C | 63% | 1020.3 hPa | 0 mm | - | 0 W/m² | - |
| 1778124138 | 12.78° C | 61% | 1020.3 hPa | 0 mm | - | 0 W/m² | - |
| 1778123835 | 12.78° C | 61% | 1020.2 hPa | 0 mm | - | 0 W/m² | - |
| 1778123532 | 12.78° C | 60% | 1020.1 hPa | 0 mm | - | 0 W/m² | - |
| 1778123228 | 13.33° C | 60% | 1020.3 hPa | 0 mm | - | 0 W/m² | - |
| 1778122926 | 13.33° C | 61% | 1020.2 hPa | 0 mm | - | 0 W/m² | - |
| 1778122623 | 13.33° C | 60% | 1020.3 hPa | 0 mm | - | 0 W/m² | - |
| 1778122320 | 13.33° C | 59% | 1020.2 hPa | 0 mm | - | 0 W/m² | - |
| 1778122018 | 13.33° C | 60% | 1019.8 hPa | 0 mm | - | 0 W/m² | - |
| 1778121715 | 13.33° C | 58% | 1019.7 hPa | 0 mm | - | 0 W/m² | - |
| 1778121410 | 13.33° C | 59% | 1019.7 hPa | 0 mm | - | 0 W/m² | - |
| 1778121108 | 13.89° C | 61% | 1019.8 hPa | 0 mm | - | 0 W/m² | - |
| 1778120805 | 13.89° C | 62% | 1019.5 hPa | 0 mm | - | 0 W/m² | - |
* Rain latest hour (hover to see other rain measurements)
** Current wind speed in m/s (hover to see current wind gust speed)